Year,Month,Day,Hour,Minute,Value (Times are PST for temperature in C)
2006,07,13,00,00,15.50
2006,07,13,00,01,15.50
2006,07,13,00,02,15.50
2006,07,13,00,03,15.50
2006,07,13,00,04,15.50
2006,07,13,00,05,15.50
2006,07,13,00,06,15.50
2006,07,13,00,07,15.50
2006,07,13,00,08,15.50
2006,07,13,00,09,15.50
2006,07,13,00,10,15.40
2006,07,13,00,11,15.40
2006,07,13,00,12,15.40
2006,07,13,00,13,15.40
2006,07,13,00,14,15.40
2006,07,13,00,15,15.40
2006,07,13,00,16,15.40
2006,07,13,00,17,15.40
2006,07,13,00,18,15.40
2006,07,13,00,19,15.30
2006,07,13,00,20,15.30
2006,07,13,00,21,15.30
2006,07,13,00,22,15.30
2006,07,13,00,23,15.30
2006,07,13,00,24,15.30
2006,07,13,00,25,15.30
2006,07,13,00,26,15.30
2006,07,13,00,27,15.30
2006,07,13,00,28,15.30
2006,07,13,00,29,15.30
2006,07,13,00,30,15.20
2006,07,13,00,31,15.20
2006,07,13,00,32,15.20
2006,07,13,00,33,15.20
2006,07,13,00,34,15.20
2006,07,13,00,35,15.20
2006,07,13,00,36,15.20
2006,07,13,00,37,15.20
2006,07,13,00,38,15.10
2006,07,13,00,39,15.10
2006,07,13,00,40,15.10
2006,07,13,00,41,15.10
2006,07,13,00,42,15.10
2006,07,13,00,43,15.10
2006,07,13,00,44,15.00
2006,07,13,00,45,15.00
2006,07,13,00,46,15.00
2006,07,13,00,47,15.00
2006,07,13,00,48,15.00
2006,07,13,00,49,15.00
2006,07,13,00,50,14.90
2006,07,13,00,51,14.90
2006,07,13,00,52,14.90
2006,07,13,00,53,14.90
2006,07,13,00,54,14.90
2006,07,13,00,55,14.90
2006,07,13,00,56,14.90
2006,07,13,00,57,14.90
2006,07,13,00,58,14.80
2006,07,13,00,59,14.80
2006,07,13,01,00,14.80
2006,07,13,01,01,14.80
2006,07,13,01,02,14.80
2006,07,13,01,03,14.80
2006,07,13,01,04,14.80
2006,07,13,01,05,14.80
2006,07,13,01,06,14.80
2006,07,13,01,07,14.80
2006,07,13,01,08,14.80
2006,07,13,01,09,14.80
2006,07,13,01,10,14.80
2006,07,13,01,11,14.80
2006,07,13,01,12,14.80
2006,07,13,01,13,14.80
2006,07,13,01,14,14.80
2006,07,13,01,15,14.80
2006,07,13,01,16,14.80
2006,07,13,01,17,14.80
2006,07,13,01,18,14.80
2006,07,13,01,19,14.80
2006,07,13,01,20,14.80
2006,07,13,01,21,14.80
2006,07,13,01,22,14.80
2006,07,13,01,23,14.70
2006,07,13,01,24,14.70
2006,07,13,01,25,14.70
2006,07,13,01,26,14.70
2006,07,13,01,27,14.70
2006,07,13,01,28,14.70
2006,07,13,01,29,14.70
2006,07,13,01,30,14.70
2006,07,13,01,31,14.60
2006,07,13,01,32,14.60
2006,07,13,01,33,14.60
2006,07,13,01,34,14.60
2006,07,13,01,35,14.60
2006,07,13,01,36,14.60
2006,07,13,01,37,14.60
2006,07,13,01,38,14.60
2006,07,13,01,39,14.60
2006,07,13,01,40,14.60
2006,07,13,01,41,14.60
2006,07,13,01,42,14.60
2006,07,13,01,43,14.60
2006,07,13,01,44,14.60
2006,07,13,01,45,14.60
2006,07,13,01,46,14.60
2006,07,13,01,47,14.70
2006,07,13,01,48,14.70
2006,07,13,01,49,14.70
2006,07,13,01,50,14.70
2006,07,13,01,51,14.70
2006,07,13,01,52,14.70
2006,07,13,01,53,14.70
2006,07,13,01,54,14.70
2006,07,13,01,55,14.70
2006,07,13,01,56,14.70
2006,07,13,01,57,14.70
2006,07,13,01,58,14.80
2006,07,13,01,59,14.80
2006,07,13,02,00,14.80
2006,07,13,02,01,14.80
2006,07,13,02,02,14.80
2006,07,13,02,03,14.80
2006,07,13,02,04,14.80
2006,07,13,02,05,14.80
2006,07,13,02,06,14.80
2006,07,13,02,07,14.80
2006,07,13,02,08,14.80
2006,07,13,02,09,14.80
2006,07,13,02,10,14.80
2006,07,13,02,11,14.80
2006,07,13,02,12,14.80
2006,07,13,02,13,14.80
2006,07,13,02,14,14.80
2006,07,13,02,15,14.80
2006,07,13,02,16,14.80
2006,07,13,02,17,14.80
2006,07,13,02,18,14.80
2006,07,13,02,19,14.80
2006,07,13,02,20,14.80
2006,07,13,02,21,14.80
2006,07,13,02,22,14.80
2006,07,13,02,23,14.80
2006,07,13,02,24,14.80
2006,07,13,02,25,14.80
2006,07,13,02,26,14.80
2006,07,13,02,27,14.80
2006,07,13,02,28,14.90
2006,07,13,02,29,14.90
2006,07,13,02,30,14.90
2006,07,13,02,31,14.90
2006,07,13,02,32,14.90
2006,07,13,02,33,14.90
2006,07,13,02,34,14.90
2006,07,13,02,35,14.90
2006,07,13,02,36,14.90
2006,07,13,02,37,14.90
2006,07,13,02,38,14.90
2006,07,13,02,39,14.90
2006,07,13,02,40,14.90
2006,07,13,02,41,14.90
2006,07,13,02,42,14.90
2006,07,13,02,43,14.90
2006,07,13,02,44,14.90
2006,07,13,02,45,14.90
2006,07,13,02,46,14.90
2006,07,13,02,47,14.90
2006,07,13,02,48,14.90
2006,07,13,02,49,14.90
2006,07,13,02,50,14.90
2006,07,13,02,51,14.90
2006,07,13,02,52,14.90
2006,07,13,02,53,14.90
2006,07,13,02,54,14.90
2006,07,13,02,55,14.90
2006,07,13,02,56,14.90
2006,07,13,02,57,14.90
2006,07,13,02,58,14.90
2006,07,13,02,59,14.90
2006,07,13,03,00,14.90
2006,07,13,03,01,14.90
2006,07,13,03,02,14.90
2006,07,13,03,03,14.90
2006,07,13,03,04,14.90
2006,07,13,03,05,14.90
2006,07,13,03,06,14.90
2006,07,13,03,07,14.90
2006,07,13,03,08,14.90
2006,07,13,03,09,14.90
2006,07,13,03,10,14.90
2006,07,13,03,11,14.90
2006,07,13,03,12,14.90
2006,07,13,03,13,14.90
2006,07,13,03,14,14.90
2006,07,13,03,15,14.90
2006,07,13,03,16,14.90
2006,07,13,03,17,14.90
2006,07,13,03,18,14.90
2006,07,13,03,19,14.90
2006,07,13,03,20,15.00
2006,07,13,03,21,15.00
2006,07,13,03,22,15.00
2006,07,13,03,23,15.00
2006,07,13,03,24,15.00
2006,07,13,03,25,15.00
2006,07,13,03,26,15.00
2006,07,13,03,27,15.00
2006,07,13,03,28,15.00
2006,07,13,03,29,15.00
2006,07,13,03,30,15.00
2006,07,13,03,31,15.00
2006,07,13,03,32,15.00
2006,07,13,03,33,15.00
2006,07,13,03,34,15.00
2006,07,13,03,35,15.10
2006,07,13,03,36,15.10
2006,07,13,03,37,15.10
2006,07,13,03,38,15.10
2006,07,13,03,39,15.10
2006,07,13,03,40,15.10
2006,07,13,03,41,15.10
2006,07,13,03,42,15.10
2006,07,13,03,43,15.10
2006,07,13,03,44,15.10
2006,07,13,03,45,15.10
2006,07,13,03,46,15.10
2006,07,13,03,47,15.10
2006,07,13,03,48,15.10
2006,07,13,03,49,15.10
2006,07,13,03,50,15.10
2006,07,13,03,51,15.10
2006,07,13,03,52,15.10
2006,07,13,03,53,15.10
2006,07,13,03,54,15.10
2006,07,13,03,55,15.10
2006,07,13,03,56,15.10
2006,07,13,03,57,15.10
2006,07,13,03,58,15.10
2006,07,13,03,59,15.10
2006,07,13,04,00,15.10
2006,07,13,04,01,15.10
2006,07,13,04,02,15.20
2006,07,13,04,03,15.20
2006,07,13,04,04,15.20
2006,07,13,04,05,15.20
2006,07,13,04,06,15.20
2006,07,13,04,07,15.20
2006,07,13,04,08,15.20
2006,07,13,04,09,15.20
2006,07,13,04,10,15.30
2006,07,13,04,11,15.30
2006,07,13,04,12,15.30
2006,07,13,04,13,15.30
2006,07,13,04,14,15.30
2006,07,13,04,15,15.30
2006,07,13,04,16,15.30
2006,07,13,04,17,15.30
2006,07,13,04,18,15.30
2006,07,13,04,19,15.30
2006,07,13,04,20,15.30
2006,07,13,04,21,15.30
2006,07,13,04,22,15.30
2006,07,13,04,23,15.30
2006,07,13,04,24,15.30
2006,07,13,04,25,15.30
2006,07,13,04,26,15.30
2006,07,13,04,27,15.30
2006,07,13,04,28,15.30
2006,07,13,04,29,15.30
2006,07,13,04,30,15.30
2006,07,13,04,31,15.30
2006,07,13,04,32,15.30
2006,07,13,04,33,15.30
2006,07,13,04,34,15.30
2006,07,13,04,35,15.30
2006,07,13,04,36,15.40
2006,07,13,04,37,15.40
2006,07,13,04,38,15.40
2006,07,13,04,39,15.40
2006,07,13,04,40,15.40
2006,07,13,04,41,15.40
2006,07,13,04,42,15.40
2006,07,13,04,43,15.40
2006,07,13,04,44,15.40
2006,07,13,04,45,15.40
2006,07,13,04,46,15.40
2006,07,13,04,47,15.40
2006,07,13,04,48,15.40
2006,07,13,04,49,15.40
2006,07,13,04,50,15.40
2006,07,13,04,51,15.40
2006,07,13,04,52,15.40
2006,07,13,04,53,15.40
2006,07,13,04,54,15.40
2006,07,13,04,55,15.40
2006,07,13,04,56,15.40
2006,07,13,04,57,15.40
2006,07,13,04,58,15.40
2006,07,13,04,59,15.40
2006,07,13,05,00,15.40
2006,07,13,05,01,15.40
2006,07,13,05,02,15.40
2006,07,13,05,03,15.40
2006,07,13,05,04,15.30
2006,07,13,05,05,15.30
2006,07,13,05,06,15.30
2006,07,13,05,07,15.30
2006,07,13,05,08,15.30
2006,07,13,05,09,15.30
2006,07,13,05,10,15.30
2006,07,13,05,11,15.30
2006,07,13,05,12,15.30
2006,07,13,05,13,15.30
2006,07,13,05,14,15.30
2006,07,13,05,15,15.30
2006,07,13,05,16,15.30
2006,07,13,05,17,15.30
2006,07,13,05,18,15.30
2006,07,13,05,19,15.30
2006,07,13,05,20,15.30
2006,07,13,05,21,15.30
2006,07,13,05,22,15.30
2006,07,13,05,23,15.30
2006,07,13,05,24,15.30
2006,07,13,05,25,15.30
2006,07,13,05,26,15.30
2006,07,13,05,27,15.30
2006,07,13,05,28,15.30
2006,07,13,05,29,15.30
2006,07,13,05,30,15.30
2006,07,13,05,31,15.30
2006,07,13,05,32,15.30
2006,07,13,05,33,15.30
2006,07,13,05,34,15.30
2006,07,13,05,35,15.30
2006,07,13,05,36,15.30
2006,07,13,05,37,15.30
2006,07,13,05,38,15.30
2006,07,13,05,39,15.30
2006,07,13,05,40,15.30
2006,07,13,05,41,15.30
2006,07,13,05,42,15.20
2006,07,13,05,43,15.20
2006,07,13,05,44,15.20
2006,07,13,05,45,15.20
2006,07,13,05,46,15.20
2006,07,13,05,47,15.20
2006,07,13,05,48,15.20
2006,07,13,05,49,15.20
2006,07,13,05,50,15.20
2006,07,13,05,51,15.20
2006,07,13,05,52,15.20
2006,07,13,05,53,15.10
2006,07,13,05,54,15.10
2006,07,13,05,55,15.10
2006,07,13,05,56,15.10
2006,07,13,05,57,15.10
2006,07,13,05,58,15.10
2006,07,13,05,59,15.10
2006,07,13,06,00,15.10
2006,07,13,06,01,15.10
2006,07,13,06,02,15.10
2006,07,13,06,03,15.10
2006,07,13,06,04,15.10
2006,07,13,06,05,15.10
2006,07,13,06,06,15.10
2006,07,13,06,07,15.10
2006,07,13,06,08,15.10
2006,07,13,06,09,15.10
2006,07,13,06,10,15.10
2006,07,13,06,11,15.10
2006,07,13,06,12,15.10
2006,07,13,06,13,15.10
2006,07,13,06,14,15.10
2006,07,13,06,15,15.10
2006,07,13,06,16,15.10
2006,07,13,06,17,15.10
2006,07,13,06,18,15.10
2006,07,13,06,19,15.10
2006,07,13,06,20,15.00
2006,07,13,06,21,15.00
2006,07,13,06,22,15.00
2006,07,13,06,23,15.00
2006,07,13,06,24,14.90
2006,07,13,06,25,14.90
2006,07,13,06,26,14.80
2006,07,13,06,27,14.80
2006,07,13,06,28,14.70
2006,07,13,06,29,14.70
2006,07,13,06,30,14.60
2006,07,13,06,31,14.60
2006,07,13,06,32,14.50
2006,07,13,06,33,14.50
2006,07,13,06,34,14.40
2006,07,13,06,35,14.30
2006,07,13,06,36,14.20
2006,07,13,06,37,14.20
2006,07,13,06,38,14.10
2006,07,13,06,39,14.00
2006,07,13,06,40,13.90
2006,07,13,06,41,13.70
2006,07,13,06,42,13.70
2006,07,13,06,43,13.60
2006,07,13,06,44,13.50
2006,07,13,06,45,13.40
2006,07,13,06,46,13.40
2006,07,13,06,47,13.30
2006,07,13,06,48,13.30
2006,07,13,06,49,13.30
2006,07,13,06,50,13.30
2006,07,13,06,51,13.30
2006,07,13,06,52,13.20
2006,07,13,06,53,13.20
2006,07,13,06,54,13.20
2006,07,13,06,55,13.10
2006,07,13,06,56,13.10
2006,07,13,06,57,13.00
2006,07,13,06,58,13.00
2006,07,13,06,59,12.90
2006,07,13,07,00,12.90
2006,07,13,07,01,12.80
2006,07,13,07,02,12.80
2006,07,13,07,03,12.80
2006,07,13,07,04,12.80
2006,07,13,07,05,12.80
2006,07,13,07,06,12.70
2006,07,13,07,07,12.70
2006,07,13,07,08,12.70
2006,07,13,07,09,12.70
2006,07,13,07,10,12.70
2006,07,13,07,11,12.70
2006,07,13,07,12,12.60
2006,07,13,07,13,12.60
2006,07,13,07,14,12.60
2006,07,13,07,15,12.60
2006,07,13,07,16,12.60
2006,07,13,07,17,12.60
2006,07,13,07,18,12.60
2006,07,13,07,19,12.50
2006,07,13,07,20,12.50
2006,07,13,07,21,12.50
2006,07,13,07,22,12.50
2006,07,13,07,23,12.50
2006,07,13,07,24,12.40
2006,07,13,07,25,12.40
2006,07,13,07,26,12.40
2006,07,13,07,27,12.40
2006,07,13,07,28,12.40
2006,07,13,07,29,12.40
2006,07,13,07,30,12.40
2006,07,13,07,31,12.40
2006,07,13,07,32,12.50
2006,07,13,07,33,12.50
2006,07,13,07,34,12.50
2006,07,13,07,35,12.50
2006,07,13,07,36,12.50
2006,07,13,07,37,12.50
2006,07,13,07,38,12.50
2006,07,13,07,39,12.50
2006,07,13,07,40,12.50
2006,07,13,07,41,12.60
2006,07,13,07,42,12.60
2006,07,13,07,43,12.60
2006,07,13,07,44,12.60
2006,07,13,07,45,12.60
2006,07,13,07,46,12.60
2006,07,13,07,47,12.60
2006,07,13,07,48,12.60
2006,07,13,07,49,12.70
2006,07,13,07,50,12.70
2006,07,13,07,51,12.70
2006,07,13,07,52,12.70
2006,07,13,07,53,12.80
2006,07,13,07,54,12.80
2006,07,13,07,55,12.80
2006,07,13,07,56,12.80
2006,07,13,07,57,12.80
2006,07,13,07,58,12.80
2006,07,13,07,59,12.80
2006,07,13,08,00,12.80
2006,07,13,08,01,12.80
2006,07,13,08,02,12.80
2006,07,13,08,03,12.80
2006,07,13,08,04,12.80
2006,07,13,08,05,12.80
2006,07,13,08,06,12.80
2006,07,13,08,07,12.80
2006,07,13,08,08,12.80
2006,07,13,08,09,12.80
2006,07,13,08,10,12.80
2006,07,13,08,11,12.80
2006,07,13,08,12,12.70
2006,07,13,08,13,12.70
2006,07,13,08,14,12.70
2006,07,13,08,15,12.70
2006,07,13,08,16,12.60
2006,07,13,08,17,12.60
2006,07,13,08,18,12.60
2006,07,13,08,19,12.50
2006,07,13,08,20,12.40
2006,07,13,08,21,12.30
2006,07,13,08,22,12.30
2006,07,13,08,23,12.30
2006,07,13,08,24,12.20
2006,07,13,08,25,12.20
2006,07,13,08,26,12.10
2006,07,13,08,27,12.10
2006,07,13,08,28,12.10
2006,07,13,08,29,12.10
2006,07,13,08,30,12.10
2006,07,13,08,31,12.10
2006,07,13,08,32,12.20
2006,07,13,08,33,12.20
2006,07,13,08,34,12.20
2006,07,13,08,35,12.20
2006,07,13,08,36,12.20
2006,07,13,08,37,12.20
2006,07,13,08,38,12.20
2006,07,13,08,39,12.20
2006,07,13,08,40,12.30
2006,07,13,08,41,12.30
2006,07,13,08,42,12.30
2006,07,13,08,43,12.30
2006,07,13,08,44,12.30
2006,07,13,08,45,12.30
2006,07,13,08,46,12.30
2006,07,13,08,47,12.30
2006,07,13,08,48,12.30
2006,07,13,08,49,12.30
2006,07,13,08,50,12.30
2006,07,13,08,51,12.30
2006,07,13,08,52,12.30
2006,07,13,08,53,12.30
2006,07,13,08,54,12.30
2006,07,13,08,55,12.20
2006,07,13,08,56,12.20
2006,07,13,08,57,12.20
2006,07,13,08,58,12.30
2006,07,13,08,59,12.30
2006,07,13,09,00,12.30
2006,07,13,09,01,12.30
2006,07,13,09,02,12.30
2006,07,13,09,03,12.30
2006,07,13,09,04,12.30
2006,07,13,09,05,12.30
2006,07,13,09,06,12.30
2006,07,13,09,07,12.30
2006,07,13,09,08,12.30
2006,07,13,09,09,12.30
2006,07,13,09,10,12.30
2006,07,13,09,11,12.30
2006,07,13,09,12,12.30
2006,07,13,09,13,12.40
2006,07,13,09,14,12.40
2006,07,13,09,15,12.40
2006,07,13,09,16,12.50
2006,07,13,09,17,12.50
2006,07,13,09,18,12.50
2006,07,13,09,19,12.50
2006,07,13,09,20,12.50
2006,07,13,09,21,12.50
2006,07,13,09,22,12.60
2006,07,13,09,23,12.60
2006,07,13,09,24,12.60
2006,07,13,09,25,12.70
2006,07,13,09,26,12.70
2006,07,13,09,27,12.80
2006,07,13,09,28,12.80
2006,07,13,09,29,12.80
2006,07,13,09,30,12.80
2006,07,13,09,31,12.80
2006,07,13,09,32,12.80
2006,07,13,09,33,12.80
2006,07,13,09,34,12.90
2006,07,13,09,35,12.90
2006,07,13,09,36,13.00
2006,07,13,09,37,13.00
2006,07,13,09,38,13.10
2006,07,13,09,39,13.10
2006,07,13,09,40,13.20
2006,07,13,09,41,13.30
2006,07,13,09,42,13.30
2006,07,13,09,43,13.40
2006,07,13,09,44,13.40
2006,07,13,09,45,13.50
2006,07,13,09,46,13.50
2006,07,13,09,47,13.60
2006,07,13,09,48,13.60
2006,07,13,09,49,13.70
2006,07,13,09,50,13.70
2006,07,13,09,51,13.70
2006,07,13,09,52,13.80
2006,07,13,09,53,13.80
2006,07,13,09,54,13.80
2006,07,13,09,55,13.90
2006,07,13,09,56,13.90
2006,07,13,09,57,14.00
2006,07,13,09,58,14.00
2006,07,13,09,59,14.10
2006,07,13,10,00,14.10
2006,07,13,10,01,14.20
2006,07,13,10,02,14.20
2006,07,13,10,03,14.20
2006,07,13,10,04,14.20
2006,07,13,10,05,14.20
2006,07,13,10,06,14.20
2006,07,13,10,07,14.20
2006,07,13,10,08,14.20
2006,07,13,10,09,14.20
2006,07,13,10,10,14.20
2006,07,13,10,11,14.20
2006,07,13,10,12,14.30
2006,07,13,10,13,14.30
2006,07,13,10,14,14.30
2006,07,13,10,15,14.30
2006,07,13,10,16,14.30
2006,07,13,10,17,14.20
2006,07,13,10,18,14.20
2006,07,13,10,19,14.10
2006,07,13,10,20,14.10
2006,07,13,10,21,14.10
2006,07,13,10,22,14.10
2006,07,13,10,23,14.10
2006,07,13,10,24,14.10
2006,07,13,10,25,14.10
2006,07,13,10,26,14.20
2006,07,13,10,27,14.20
2006,07,13,10,28,14.20
2006,07,13,10,29,14.20
2006,07,13,10,30,14.30
2006,07,13,10,31,14.40
2006,07,13,10,32,14.40
2006,07,13,10,33,14.40
2006,07,13,10,34,14.40
2006,07,13,10,35,14.40
2006,07,13,10,36,14.40
2006,07,13,10,37,14.50
2006,07,13,10,38,14.50
2006,07,13,10,39,14.60
2006,07,13,10,40,14.60
2006,07,13,10,41,14.70
2006,07,13,10,42,14.80
2006,07,13,10,43,14.80
2006,07,13,10,44,14.90
2006,07,13,10,45,14.90
2006,07,13,10,46,15.00
2006,07,13,10,47,15.10
2006,07,13,10,48,15.10
2006,07,13,10,49,15.10
2006,07,13,10,50,15.10
2006,07,13,10,51,15.20
2006,07,13,10,52,15.20
2006,07,13,10,53,15.30
2006,07,13,10,54,15.20
2006,07,13,10,55,15.20
2006,07,13,10,56,15.10
2006,07,13,10,57,15.10
2006,07,13,10,58,15.10
2006,07,13,10,59,15.10
2006,07,13,11,00,15.00
2006,07,13,11,01,15.00
2006,07,13,11,02,14.90
2006,07,13,11,03,14.90
2006,07,13,11,04,14.90
2006,07,13,11,05,15.00
2006,07,13,11,06,15.00
2006,07,13,11,07,15.00
2006,07,13,11,08,15.10
2006,07,13,11,09,15.10
2006,07,13,11,10,15.20
2006,07,13,11,11,15.20
2006,07,13,11,12,15.30
2006,07,13,11,13,15.30
2006,07,13,11,14,15.30
2006,07,13,11,15,15.30
2006,07,13,11,16,15.30
2006,07,13,11,17,15.40
2006,07,13,11,18,15.40
2006,07,13,11,19,15.50
2006,07,13,11,20,15.50
2006,07,13,11,21,15.50
2006,07,13,11,22,15.50
2006,07,13,11,23,15.50
2006,07,13,11,24,15.60
2006,07,13,11,25,15.60
2006,07,13,11,26,15.50
2006,07,13,11,27,15.50
2006,07,13,11,28,15.40
2006,07,13,11,29,15.30
2006,07,13,11,30,15.30
2006,07,13,11,31,15.30
2006,07,13,11,32,15.20
2006,07,13,11,33,15.20
2006,07,13,11,34,15.20
2006,07,13,11,35,15.30
2006,07,13,11,36,15.30
2006,07,13,11,37,15.50
2006,07,13,11,38,15.50
2006,07,13,11,39,15.60
2006,07,13,11,40,15.70
2006,07,13,11,41,15.80
2006,07,13,11,42,15.80
2006,07,13,11,43,15.90
2006,07,13,11,44,15.90
2006,07,13,11,45,15.90
2006,07,13,11,46,15.80
2006,07,13,11,47,15.80
2006,07,13,11,48,15.80
2006,07,13,11,49,15.90
2006,07,13,11,50,15.90
2006,07,13,11,51,15.90
2006,07,13,11,52,16.00
2006,07,13,11,53,16.00
2006,07,13,11,54,16.00
2006,07,13,11,55,16.10
2006,07,13,11,56,16.10
2006,07,13,11,57,16.10
2006,07,13,11,58,16.10
2006,07,13,11,59,16.10
2006,07,13,12,00,16.10
2006,07,13,12,01,16.10
2006,07,13,12,02,16.10
2006,07,13,12,03,16.10
2006,07,13,12,04,16.10
2006,07,13,12,05,16.10
2006,07,13,12,06,16.20
2006,07,13,12,07,16.20
2006,07,13,12,08,16.10
2006,07,13,12,09,16.10
2006,07,13,12,10,16.20
2006,07,13,12,11,16.20
2006,07,13,12,12,16.30
2006,07,13,12,13,16.40
2006,07,13,12,14,16.50
2006,07,13,12,15,16.70
2006,07,13,12,16,16.70
2006,07,13,12,17,16.70
2006,07,13,12,18,16.70
2006,07,13,12,19,16.70
2006,07,13,12,20,16.70
2006,07,13,12,21,16.70
2006,07,13,12,22,16.80
2006,07,13,12,23,16.80
2006,07,13,12,24,16.90
2006,07,13,12,25,16.90
2006,07,13,12,26,16.90
2006,07,13,12,27,16.90
2006,07,13,12,28,17.00
2006,07,13,12,29,17.00
2006,07,13,12,30,17.00
2006,07,13,12,31,17.00
2006,07,13,12,32,17.10
2006,07,13,12,33,17.10
2006,07,13,12,34,17.10
2006,07,13,12,35,17.10
2006,07,13,12,36,17.20
2006,07,13,12,37,17.20
2006,07,13,12,38,17.30
2006,07,13,12,39,17.30
2006,07,13,12,40,17.10
2006,07,13,12,41,17.10
2006,07,13,12,42,17.00
2006,07,13,12,43,16.90
2006,07,13,12,44,16.90
2006,07,13,12,45,16.90
2006,07,13,12,46,16.90
2006,07,13,12,47,16.90
2006,07,13,12,48,17.00
2006,07,13,12,49,17.00
2006,07,13,12,50,16.90
2006,07,13,12,51,16.80
2006,07,13,12,52,16.80
2006,07,13,12,53,16.80
2006,07,13,12,54,16.80
2006,07,13,12,55,16.70
2006,07,13,12,56,16.70
2006,07,13,12,57,16.60
2006,07,13,12,58,16.60
2006,07,13,12,59,16.50
2006,07,13,13,00,16.40
2006,07,13,13,01,16.30
2006,07,13,13,02,16.20
2006,07,13,13,03,16.20
2006,07,13,13,04,16.20
2006,07,13,13,05,16.20
2006,07,13,13,06,16.30
2006,07,13,13,07,16.40
2006,07,13,13,08,16.50
2006,07,13,13,09,16.60
2006,07,13,13,10,16.70
2006,07,13,13,11,16.80
2006,07,13,13,12,16.90
2006,07,13,13,13,16.90
2006,07,13,13,14,16.70
2006,07,13,13,15,16.70
2006,07,13,13,16,16.60
2006,07,13,13,17,16.60
2006,07,13,13,18,16.60
2006,07,13,13,19,16.60
2006,07,13,13,20,16.70
2006,07,13,13,21,16.80
2006,07,13,13,22,16.90
2006,07,13,13,23,17.00
2006,07,13,13,24,17.00
2006,07,13,13,25,17.10
2006,07,13,13,26,17.20
2006,07,13,13,27,17.30
2006,07,13,13,28,17.30
2006,07,13,13,29,17.30
2006,07,13,13,30,17.30
2006,07,13,13,31,17.40
2006,07,13,13,32,17.50
2006,07,13,13,33,17.50
2006,07,13,13,34,17.50
2006,07,13,13,35,17.60
2006,07,13,13,36,17.60
2006,07,13,13,37,17.70
2006,07,13,13,38,17.70
2006,07,13,13,39,17.80
2006,07,13,13,40,17.70
2006,07,13,13,41,17.70
2006,07,13,13,42,17.70
2006,07,13,13,43,17.80
2006,07,13,13,44,17.80
2006,07,13,13,45,17.80
2006,07,13,13,46,17.80
2006,07,13,13,47,17.90
2006,07,13,13,48,17.90
2006,07,13,13,49,17.90
2006,07,13,13,50,18.00
2006,07,13,13,51,18.10
2006,07,13,13,52,18.20
2006,07,13,13,53,18.20
2006,07,13,13,54,18.10
2006,07,13,13,55,18.10
2006,07,13,13,56,18.10
2006,07,13,13,57,18.10
2006,07,13,13,58,18.20
2006,07,13,13,59,18.20
2006,07,13,14,00,18.20
2006,07,13,14,01,18.20
2006,07,13,14,02,18.10
2006,07,13,14,03,18.10
2006,07,13,14,04,18.00
2006,07,13,14,05,17.90
2006,07,13,14,06,17.90
2006,07,13,14,07,17.90
2006,07,13,14,08,17.80
2006,07,13,14,09,17.80
2006,07,13,14,10,17.90
2006,07,13,14,11,17.90
2006,07,13,14,12,17.90
2006,07,13,14,13,17.80
2006,07,13,14,14,17.80
2006,07,13,14,15,17.80
2006,07,13,14,16,17.80
2006,07,13,14,17,17.80
2006,07,13,14,18,17.80
2006,07,13,14,19,17.80
2006,07,13,14,20,17.80
2006,07,13,14,21,17.80
2006,07,13,14,22,17.80
2006,07,13,14,23,17.90
2006,07,13,14,24,17.90
2006,07,13,14,25,17.90
2006,07,13,14,26,17.90
2006,07,13,14,27,17.90
2006,07,13,14,28,17.90
2006,07,13,14,29,17.80
2006,07,13,14,30,17.80
2006,07,13,14,31,17.80
2006,07,13,14,32,17.80
2006,07,13,14,33,17.90
2006,07,13,14,34,18.00
2006,07,13,14,35,18.20
2006,07,13,14,36,18.20
2006,07,13,14,37,18.20
2006,07,13,14,38,18.20
2006,07,13,14,39,18.20
2006,07,13,14,40,18.30
2006,07,13,14,41,18.30
2006,07,13,14,42,18.40
2006,07,13,14,43,18.40
2006,07,13,14,44,18.40
2006,07,13,14,45,18.40
2006,07,13,14,46,18.40
2006,07,13,14,47,18.40
2006,07,13,14,48,18.40
2006,07,13,14,49,18.40
2006,07,13,14,50,18.50
2006,07,13,14,51,18.50
2006,07,13,14,52,18.60
2006,07,13,14,53,18.80
2006,07,13,14,54,18.90
2006,07,13,14,55,18.90
2006,07,13,14,56,18.90
2006,07,13,14,57,18.90
2006,07,13,14,58,18.90
2006,07,13,14,59,18.90
2006,07,13,15,00,18.80
2006,07,13,15,01,18.70
2006,07,13,15,02,18.60
2006,07,13,15,03,18.50
2006,07,13,15,04,18.50
2006,07,13,15,05,18.50
2006,07,13,15,06,18.50
2006,07,13,15,07,18.60
2006,07,13,15,08,18.60
2006,07,13,15,09,18.70
2006,07,13,15,10,18.70
2006,07,13,15,11,18.80
2006,07,13,15,12,18.80
2006,07,13,15,13,18.90
2006,07,13,15,14,18.90
2006,07,13,15,15,18.80
2006,07,13,15,16,18.70
2006,07,13,15,17,18.70
2006,07,13,15,18,18.60
2006,07,13,15,19,18.60
2006,07,13,15,20,18.60
2006,07,13,15,21,18.60
2006,07,13,15,22,18.70
2006,07,13,15,23,18.90
2006,07,13,15,24,19.00
2006,07,13,15,25,19.10
2006,07,13,15,26,19.10
2006,07,13,15,27,19.10
2006,07,13,15,28,19.10
2006,07,13,15,29,19.10
2006,07,13,15,30,19.20
2006,07,13,15,31,19.30
2006,07,13,15,32,19.30
2006,07,13,15,33,19.30
2006,07,13,15,34,19.30
2006,07,13,15,35,19.20
2006,07,13,15,36,19.30
2006,07,13,15,37,19.30
2006,07,13,15,38,19.30
2006,07,13,15,39,19.30
2006,07,13,15,40,19.30
2006,07,13,15,41,19.30
2006,07,13,15,42,19.40
2006,07,13,15,43,19.30
2006,07,13,15,44,19.20
2006,07,13,15,45,19.10
2006,07,13,15,46,19.00
2006,07,13,15,47,18.90
2006,07,13,15,48,18.90
2006,07,13,15,49,18.80
2006,07,13,15,50,18.70
2006,07,13,15,51,18.60
2006,07,13,15,52,18.50
2006,07,13,15,53,18.40
2006,07,13,15,54,18.30
2006,07,13,15,55,18.20
2006,07,13,15,56,18.30
2006,07,13,15,57,18.40
2006,07,13,15,58,18.40
2006,07,13,15,59,18.40
2006,07,13,16,00,18.30
2006,07,13,16,01,18.20
2006,07,13,16,02,18.10
2006,07,13,16,03,18.10
2006,07,13,16,04,18.10
2006,07,13,16,05,18.10
2006,07,13,16,06,18.10
2006,07,13,16,07,18.10
2006,07,13,16,08,18.10
2006,07,13,16,09,18.10
2006,07,13,16,10,18.10
2006,07,13,16,11,18.00
2006,07,13,16,12,17.90
2006,07,13,16,13,17.90
2006,07,13,16,14,17.90
2006,07,13,16,15,17.90
2006,07,13,16,16,17.80
2006,07,13,16,17,17.70
2006,07,13,16,18,17.70
2006,07,13,16,19,17.80
2006,07,13,16,20,17.80
2006,07,13,16,21,17.80
2006,07,13,16,22,17.80
2006,07,13,16,23,17.80
2006,07,13,16,24,17.70
2006,07,13,16,25,17.70
2006,07,13,16,26,17.70
2006,07,13,16,27,17.70
2006,07,13,16,28,17.70
2006,07,13,16,29,17.70
2006,07,13,16,30,17.70
2006,07,13,16,31,17.60
2006,07,13,16,32,17.60
2006,07,13,16,33,17.50
2006,07,13,16,34,17.50
2006,07,13,16,35,17.50
2006,07,13,16,36,17.50
2006,07,13,16,37,17.50
2006,07,13,16,38,17.50
2006,07,13,16,39,17.50
2006,07,13,16,40,17.40
2006,07,13,16,41,17.30
2006,07,13,16,42,17.30
2006,07,13,16,43,17.30
2006,07,13,16,44,17.40
2006,07,13,16,45,17.40
2006,07,13,16,46,17.50
2006,07,13,16,47,17.50
2006,07,13,16,48,17.70
2006,07,13,16,49,17.80
2006,07,13,16,50,18.00
2006,07,13,16,51,18.10
2006,07,13,16,52,18.20
2006,07,13,16,53,18.30
2006,07,13,16,54,18.30
2006,07,13,16,55,18.40
2006,07,13,16,56,18.50
2006,07,13,16,57,18.60
2006,07,13,16,58,18.60
2006,07,13,16,59,18.70
2006,07,13,17,00,18.80
2006,07,13,17,01,18.70
2006,07,13,17,02,18.60
2006,07,13,17,03,18.50
2006,07,13,17,04,18.30
2006,07,13,17,05,18.30
2006,07,13,17,06,18.30
2006,07,13,17,07,18.20
2006,07,13,17,08,18.20
2006,07,13,17,09,18.20
2006,07,13,17,10,18.20
2006,07,13,17,11,18.10
2006,07,13,17,12,18.10
2006,07,13,17,13,18.00
2006,07,13,17,14,17.90
2006,07,13,17,15,17.90
2006,07,13,17,16,17.90
2006,07,13,17,17,17.80
2006,07,13,17,18,17.60
2006,07,13,17,19,17.50